EW5922 Weather Reports


time (UTC)temp
C
wind
direction
speed
KPH
gust
KPH
rain 1hr
cm
rain 24hr
cm
rain mn
cm
humidity
%
barometer
mb
20260504214504 23 273 3.2 12.9 0.00 0.00 0.00 35 1009.6
20260504214005 23 168 3.2 20.9 0.00 0.00 0.00 34 1009.7
20260504213503 23 218 1.6 20.9 0.00 0.00 0.00 35 1009.6
20260504213003 23 60 1.6 22.5 0.00 0.00 0.00 35 1009.7
20260504212504 23 321 1.6 22.5 0.00 0.00 0.00 34 1009.8
20260504211004 24 230 3.2 9.7 0.00 0.00 0.00 35 1009.9
20260504210505 23 196 1.6 9.7 0.00 0.00 0.00 35 1009.9
20260504210004 23 289 1.6 12.9 0.00 0.00 0.00 35 1009.8
20260504205505 23 208 4.8 12.9 0.00 0.00 0.00 34 1009.7
20260504205004 23 163 3.2 24.1 0.00 0.00 0.00 35 1009.5
20260504204504 24 220 9.7 24.1 0.00 0.00 0.00 34 1009.6
20260504204004 23 216 1.6 14.5 0.00 0.00 0.00 34 1009.9
20260504203004 24 263 1.6 11.3 0.00 0.00 0.00 35 1009.9
20260504202004 23 197 3.2 11.3 0.00 0.00 0.00 34 1009.8
20260504201504 23 277 6.4 24.1 0.00 0.00 0.00 35 1009.6
20260504201004 24 244 11.3 24.1 0.00 0.00 0.00 34 1010.0
20260504200503 24 354 6.4 12.9 0.00 0.00 0.00 35 1010.0
20260504195504 23 253 1.6 9.7 0.00 0.00 0.00 36 1010.1
20260504195004 23 322 1.6 11.3 0.00 0.00 0.00 36 1009.8
20260504194504 23 206 3.2 14.5 0.00 0.00 0.00 35 1010.2
20260504194003 23 258 6.4 14.5 0.00 0.00 0.00 35 1010.0
20260504193502 24 176 8.0 14.5 0.00 0.00 0.00 35 1010.1
20260504193002 23 251 0.0 14.5 0.00 0.00 0.00 36 1010.0
20260504191502 23 280 6.4 16.1 0.00 0.00 0.00 35 1010.3
20260504185502 23 280 8.0 14.5 0.00 0.00 0.00 35 1010.6
20260504185002 23 259 3.2 14.5 0.00 0.00 0.00 36 1010.8
20260504184502 22 342 1.6 14.5 0.00 0.00 0.00 37 1010.8
20260504184002 23 280 3.2 11.3 0.00 0.00 0.00 36 1011.0
20260504183503 23 308 3.2 14.5 0.00 0.00 0.00 38 1010.9
20260504183002 23 243 4.8 20.9 0.00 0.00 0.00 35 1011.0
20260504182502 23 308 8.0 20.9 0.00 0.00 0.00 36 1011.1
20260504182002 22 278 12.9 20.9 0.00 0.00 0.00 36 1011.2
20260504181502 22 248 3.2 12.9 0.00 0.00 0.00 38 1011.2
20260504181002 22 245 4.8 16.1 0.00 0.00 0.00 36 1011.2
20260504180502 22 225 3.2 16.1 0.00 0.00 0.00 36 1011.2
20260504180002 22 250 1.6 14.5 0.00 0.00 0.00 37 1011.2
20260504175502 22 203 3.2 14.5 0.00 0.00 0.00 36 1011.6
20260504174502 22 306 3.2 16.1 0.00 0.00 0.00 38 1011.8
20260504174002 21 194 1.6 16.1 0.00 0.00 0.00 39 1011.8
20260504173502 21 239 6.4 20.9 0.00 0.00 0.00 37 1011.8
20260504173001 21 218 8.0 20.9 0.00 0.00 0.00 38 1011.8
20260504172502 21 185 3.2 20.9 0.00 0.00 0.00 39 1011.6
20260504172002 21 213 3.2 22.5 0.00 0.00 0.00 39 1012.0
20260504171502 21 218 3.2 22.5 0.00 0.00 0.00 39 1011.9
20260504151000 19 170 3.2 11.3 0.00 0.00 0.00 42 1013.5
20260504150500 20 235 3.2 14.5 0.00 0.00 0.00 42 1013.6
20260504140924 18 264 6.4 16.1 0.00 0.00 0.00 46 1013.9
20260504130347 15 330 4.8 12.9 0.00 0.00 0.00 57 1014.4
20260504110311 10 220 3.2 9.7 0.00 0.00 0.00 72 1015.0
20260504081756 8 246 0.0 4.8 0.00 0.00 0.00 61 1014.4
20260504081256 8 255 0.0 3.2 0.00 0.00 0.00 60 1014.5
20260504080256 9 354 1.6 4.8 0.00 0.00 0.00 59 1014.5
20260504070255 8 228 1.6 3.2 0.00 0.00 0.00 61 1014.2
20260504060209 10 243 0.0 3.2 0.00 0.00 0.00 57 1014.3
20260504050708 10 245 3.2 3.2 0.00 0.00 0.00 57 1013.9
20260504050208 10 236 0.0 3.2 0.00 0.00 0.00 57 1014.0
20260504045701 10 248 0.0 3.2 0.00 0.00 0.00 56 1014.0
20260504045156 10 229 0.0 3.2 0.00 0.00 0.00 56 1013.7
20260504044656 10 242 0.0 3.2 0.00 0.00 0.00 55 1013.7
20260504044154 10 224 0.0 3.2 0.00 0.00 0.00 54 1013.9
20260504043655 10 253 1.6 6.4 0.00 0.00 0.00 53 1013.7
20260504042655 10 243 1.6 4.8 0.00 0.00 0.00 54 1013.6
20260504042155 10 275 0.0 4.8 0.00 0.00 0.00 54 1013.8
20260504041655 10 265 1.6 4.8 0.00 0.00 0.00 54 1013.6
20260504041155 10 220 1.6 4.8 0.00 0.00 0.00 54 1013.6
20260504040655 10 228 0.0 3.2 0.00 0.00 0.00 54 1013.4
20260504040149 10 211 1.6 3.2 0.00 0.00 0.00 53 1013.8
20260504035643 10 231 0.0 4.8 0.00 0.00 0.00 53 1013.3
20260504035143 10 270 0.0 4.8 0.00 0.00 0.00 52 1013.5
20260504034131 11 243 0.0 1.6 0.00 0.00 0.00 52 1013.4
20260504033631 11 240 0.0 3.2 0.00 0.00 0.00 51 1013.2
20260504032119 11 244 0.0 4.8 0.00 0.00 0.00 50 1013.3
20260504031613 11 230 0.0 4.8 0.00 0.00 0.00 50 1013.1
20260504031108 11 243 1.6 4.8 0.00 0.00 0.00 49 1013.2
20260504030608 11 239 0.0 4.8 0.00 0.00 0.00 49 1013.3
20260504025607 12 242 0.0 3.2 0.00 0.00 0.00 48 1013.1
20260504025107 12 257 1.6 3.2 0.00 0.00 0.00 47 1013.2
20260504024607 12 276 0.0 4.8 0.00 0.00 0.00 46 1013.2
20260504024107 12 230 0.0 4.8 0.00 0.00 0.00 45 1013.3
20260504023607 12 195 1.6 4.8 0.00 0.00 0.00 45 1013.3
20260504022607 12 236 1.6 6.4 0.00 0.00 0.00 44 1013.1
20260504022108 12 255 1.6 4.8 0.00 0.00 0.00 44 1013.2
20260504021607 12 248 0.0 4.8 0.00 0.00 0.00 45 1013.4
20260504021107 12 221 1.6 4.8 0.00 0.00 0.00 45 1013.1
20260504020607 12 183 1.6 4.8 0.00 0.00 0.00 45 1013.4
20260504015554 12 253 0.0 4.8 0.00 0.00 0.00 45 1013.3
20260504015056 12 278 1.6 3.2 0.00 0.00 0.00 44 1013.2
20260504013542 12 235 0.0 1.6 0.00 0.00 0.00 44 1013.2
20260504013035 12 239 1.6 1.6 0.00 0.00 0.00 45 1013.2
20260504012530 12 238 0.0 1.6 0.00 0.00 0.00 44 1013.1
20260504012031 12 245 0.0 1.6 0.00 0.00 0.00 43 1012.9
20260504011523 12 231 0.0 3.2 0.00 0.00 0.00 42 1012.8
20260504011018 13 234 0.0 4.8 0.00 0.00 0.00 41 1012.9
20260504010518 13 185 3.2 4.8 0.00 0.00 0.00 41 1012.9
20260504010011 13 256 1.6 4.8 0.00 0.00 0.00 40 1012.6
20260504005007 13 229 0.0 3.2 0.00 0.00 0.00 41 1012.3
20260504004459 13 238 0.0 4.8 0.00 0.00 0.00 40 1012.3
20260504003955 13 240 0.0 4.8 0.00 0.00 0.00 39 1012.5
20260504003455 14 238 1.6 4.8 0.00 0.00 0.00 38 1012.5
20260504001955 14 232 0.0 9.7 0.00 0.00 0.00 38 1012.1
20260504001454 14 267 4.8 9.7 0.00 0.00 0.00 37 1011.8
20260504000953 14 261 3.2 4.8 0.00 0.00 0.00 37 1011.9
20260504000455 14 205 1.6 9.7 0.00 0.00 0.00 37 1011.6
20260503235954 14 303 0.0 9.7 0.00 0.00 0.00 37 1011.7
20260503234947 14 217 1.6 6.4 0.00 0.00 0.00 36 1011.9
20260503234442 15 240 0.0 11.3 0.00 0.00 0.00 35 1011.9
20260503233942 15 255 1.6 11.3 0.00 0.00 0.00 35 1011.7
20260503232930 15 257 3.2 12.9 0.00 0.00 0.00 33 1011.6
20260503232430 15 221 4.8 12.9 0.00 0.00 0.00 33 1011.5
20260503231924 15 239 3.2 16.1 0.00 0.00 0.00 34 1011.6
20260503231418 15 261 3.2 16.1 0.00 0.00 0.00 33 1011.4
20260503230919 15 330 1.6 9.7 0.00 0.00 0.00 33 1011.5
20260503230411 16 232 3.2 12.9 0.00 0.00 0.00 33 1011.4
20260503225906 16 272 3.2 12.9 0.00 0.00 0.00 33 1011.5
20260503225406 16 259 6.4 12.9 0.00 0.00 0.00 33 1011.3
20260503224407 16 175 6.4 12.9 0.00 0.00 0.00 32 1011.1
20260503223906 16 269 6.4 12.9 0.00 0.00 0.00 32 1011.3
20260503223406 16 233 1.6 14.5 0.00 0.00 0.00 33 1011.3
20260503222905 16 236 8.0 14.5 0.00 0.00 0.00 31 1011.4
20260503222407 16 243 4.8 14.5 0.00 0.00 0.00 32 1011.3
20260503221406 16 279 6.4 16.1 0.00 0.00 0.00 31 1011.3
20260503220408 16 259 1.6 14.5 0.00 0.00 0.00 30 1011.2
20260503215907 16 235 4.8 17.7 0.00 0.00 0.00 31 1011.4
20260503215407 16 235 9.7 17.7 0.00 0.00 0.00 30 1011.2